User: anonymous   Login
Location: Le Petit-Vavre
(46.5081°N, 1.5239°E)
Time: 20:41:41
(UTC+00:00)
Language:

Cosmos 2333 Rocket - Orbit

View from above orbital plane
View from above orbital plane
View from above satellite
View from above satellite

Ground track
Ground track

The orbit data is extracted from the following two-line orbital elements,

1 24298U 96051B   21136.71402764 -.00000184  00000-0 -73391-4 0  9992
2 24298  70.8292 287.8863 0017955 223.0913 136.8802 14.12446707273415
Epoch (UTC): 16 May 2021 17:08:11
Eccentricity: 0.0017955
inclination: 70.8292°
perigee height: 838 km
apogee height: 864 km
right ascension of ascending node: 287.8863°
argument of perigee: 223.0913°
revolutions per day: 14.12446707
mean anomaly at epoch: 136.8802°
orbit number at epoch: 27341

The dashed part of the orbit path shows where the satellite is in the earth's shadow,  

DLR